Terug naar catalogus

VIASAT 2

ActiefCommunicatieGEO
NORAD 42740·PAYLOAD·🇺🇸 United States

Gelanceerd Jun 1, 2017 vanaf Guiana Space Centre

Loading…

TLE

VersSource: Space-Track

Epoch: Sep 14, 2026, 22:01 UTC

1 42740U 17029A   26257.91766740 -.00000272  00000-0  00000-0 0  9990
2 42740   0.0185 239.1023 0000988 266.5455 108.6669  1.00272974 34095

Volg VIASAT 2 in realtime met AllMySat

Download on the App Store